Showing default

CBERS 4A, 44883

Orbit data source: Space-Track

CBERS 4A, 44883 is a CN and BR payload satellite in SSO that was launched on Fri, 20 Dec 2019 UTC via a CHANG ZHENG 4B launch vehicle from the Taiyaun Space Center, China (TSC). Payload-class satellites include a variety of spacecraft equipped with specific instruments for various scientific and technological missions. These include communications satellites like Starlink; space stations such as the ISS; scientific satellites like the Hubble; Earth observation satellites from companies like Planet Labs, Umbra, and HawkEye 360; GPS; miniature CubeSats for education and research; and military/defense satellites.

Loading next visibility...
Identifier
44883, 2019-093E
Orbit
SSO
Country
Flag of CNCN / CHBZ
Flag of BRBR / CHBZ
Related business
Manufacturer
CAST/INPE
Mission
Operational Civil Imaging
Bus & Motor
ZY, AOCS 20N
Mass
1,980 kg wet, ~1,900 kg dry
Launch date (UTC)
2019-12-20 (6 years ago)
Launch vehicle
CHANG ZHENG 4B
Launch site
Taiyaun Space Center, China (TSC)
Object type
Payload
Rocket body
Debris
Shape & HBR
Box + 1 Pan, Unknown HBR
Radar Cross Section
22.196 m², Large (>1 m²)

Expand to show TLE details & history
Last TLE update: 8 hours ago

TLE from 8 hours ago
0 CBERS 4A
1 44883U 19093E   26104.80931674  .00000479  00000-0  67261-4 0  9996
2 44883  97.7538 174.0752 0002791  58.2272 301.9213 14.81663386341697
Epoch: 2026-04-14T19:25Z
TLE epoch observation values (Epoch: 2026-04-14T19:25:24.966Z)
Latitude
-0°
Longitude
39.74094°
Altitude
626.073 km
Speed
7.546 km/s
True Right ascension
11h 36m 18s
True Declination
0° 00' 00"
Sunlit
Object was in full shadow at epoch
Visualization orbit readout
Latitude
Unknown
Longitude
Unknown
Altitude
Unknown
Speed
Unknown
Apparent Right ascension
Unknown
Apparent Declination
Unknown
Sunlit
N/A
Visualization observer readout
Local Sidereal Time
09:58:44
Azimuth
Unknown
Elevation
Unknown
Doppler factor
Unknown
Orbital elements
Apogee altitude
623.064 km
Perigee altitude
619.157 km
Semi-major axis
6,999.248 km
Eccentricity
0.00028
Inclination
97.7538°
RAAN
174.0752°
Arg. of periapsis
58.2272°
True anomaly
301.89415°
Mean anomaly
301.9213°
Eccentric anomaly
301.90773°
Mean motion
3.70652 °/min
Orbital period
97.13 mins
BSTAR
0.000067261
Loading maneuver chart data...
Computing Atmospheric mass density...
Loading historical data...
Loading historical data...
Loading historical data...
Loading historical data...
Loading historical data...
Loading historical data...
Loading historical data...

Documentation

Showing up to 5 results
|